Location: Newark
(43.4545°N, 5.8521°W)
Time: 16:22:50
(UTC+00:00)

ISS - Pass Details

Date: 23 November 2019
Orbit: 411 x 421 km, 51.6° (Epoch: 12 December)

Event Time Altitude Azimuth Distance (km) Brightness Sun altitude
Rises 18:09:34 0° 222° (SW) 2,342 1.0 -13.8°
Reaches altitude 10° 18:11:41 10° 216° (SW) 1,485 -0.2 -14.2°
Maximum altitude 18:14:54 46° 141° (SE) 568 -3.3 -14.8°
Enters shadow 18:16:01 32° 90° (E) 742 -3.1 -15.0°
